STARLINK-1256 (45401 NORAD) Tracking and Keplerian Element Data

This shows tracking and keplerian element data for the satellite.

Feedback or suggestion? Click here.




ElementValue
Catalog45401
NameSTARLINK-1256
Epoch Orbit176
Epoch Day188.91667824
Epoch Year2020
RAAN77.3191
Inclination52.9988
Eccentricity0.0001184
Argument of Perigee82.4288
Mean Anonmoly259.5131
Mean Motion15.15249583
Decay Rate-0.00982872
L11 45401U 20019AT 20188.91667824 -.00982872 00000-0 -56095-1 0 9992
L22 45401 52.9988 77.3191 0001184 82.4288 259.5131 15.15249583 1764

Live tracking and technical data element details for STARLINK-1256 (NORAD 45401). STARLINK-1256 can be tracked NOW for your location showing map with azimuth and elevation plus other details from your city location.

Track the satellite on the map from your city or location and see movement details for azimuth, elevation, latitude, longitude, range, height, and movement on the map or in text.







IsCatalogInMostPopularTable: catalog: 45401, numindb: 25
Update: records affected: 1



GetName: 45401 STARLINK-1256

Hit Count: updated at: Wed, 08 Jul 2020 05:29:40 GMT